[[{"header":{"parameterUnit":"m.s-1","parameterCategory":1,"la1":30.2991,"la2":30.254,"lo1":-89.0895,"lo2":-89.0444,"dy":0.0017,"dx":0.0017,"nx":28,"ny":28,"refTime":"2024-10-02T21:00:00:Z","depth":0,"parameterNumber":2,"parameterNumberName":"U-component_of_WINDS"},"data":[0,0,0,0,0,0,0,0,0,0,0,0,0,0,0,0,0,0,0,0,0,0,0,0,0,0,0,0,0,0,0,0,0,0,0,0,0,0,0,0,0,0,0,0,0,0,0,0,0,0,0,0,0,0,0,0,0,0,-4.2742,-4.2742,0,-4.2721,-4.2721,-4.272,-4.26,-4.2597,-4.2595,-4.2592,-4.2571,-4.2573,-4.2576,0,0,0,0,0,0,0,0,0,0,0,0,0,-4.268,-4.2682,-4.2742,-4.2742,-4.2741,-4.2721,-4.2721,-4.272,-4.2601,-4.2597,-4.2594,-4.259,-4.2571,-4.2573,-4.2576,0,0,0,0,0,0,0,0,0,0,0,0,0,-4.2688,-4.2683,-4.2742,-4.2679,-4.2673,-4.2721,-4.2721,-4.272,-4.2602,-4.2597,-4.2593,-4.2589,-4.257,-4.2573,-4.2576,-4.2683,0,0,-4.2586,-4.2587,0,0,0,0,0,0,0,0,-4.2688,-4.2691,-4.2689,-4.2684,-4.2677,-4.2659,-4.2691,-4.2708,-4.2603,-4.2629,-4.2592,-4.2587,-4.2604,-4.2604,-4.261,-4.2682,-4.2681,-4.2586,-4.2588,-4.259,-4.2591,0,0,0,0,0,0,0,-4.2688,-4.2691,-4.2734,-4.2689,-4.2682,-4.2653,-4.2649,-4.2694,-4.2641,-4.2626,-4.2617,-4.2617,-4.26,-4.2607,-4.2608,-4.2681,-4.2586,-4.2589,-4.2591,-4.2592,-4.2842,-4.2846,0,0,0,0,0,0,-4.2696,-4.2691,-4.2734,-4.2733,-4.2672,-4.2658,-4.2653,-4.2669,-4.264,-4.2632,-4.262,-4.2611,-4.2604,-4.2605,-4.2607,-4.2732,-4.259,-4.2593,-4.2594,-4.2837,-4.2843,-4.2848,0,0,0,0,0,0,-4.2695,-4.2701,-4.2735,-4.271,-4.2712,-4.2663,-4.2682,-4.2671,-4.2678,-4.2636,-4.2626,-4.2637,-4.26,-4.2603,-4.2665,-4.2729,-4.2594,-4.2597,-4.2831,-4.2839,-4.2845,-4.2981,0,0,0,0,0,0,-4.2694,-4.2701,-4.274,-4.2711,-4.2714,-4.2793,-4.2686,-4.2674,-4.2683,-4.2671,-4.2649,-4.2641,-4.2597,-4.2661,-4.2669,-4.2731,-4.2599,-4.2825,-4.2835,-4.2843,-4.297,-4.2992,-4.301,0,0,0,0,0,-4.2692,-4.2779,-4.2743,-4.2749,-4.2762,-4.2797,-4.2798,-4.2746,-4.2689,-4.2729,-4.2702,-4.2642,-4.2721,-4.2669,-4.2676,-4.2741,-4.2821,-4.2832,-4.2842,-4.2962,-4.2987,-4.3009,0,0,0,0,0,0,-4.2816,-4.2774,-4.2733,-4.2814,-4.281,-4.2777,-4.2825,-4.2775,-4.2787,-4.2775,-4.2709,-4.2706,-4.2779,-4.2765,-4.2708,-4.2843,-4.2761,-4.2774,-4.2849,-4.2873,-4.2893,-4.2895,-4.2602,0,0,0,0,0,-4.2853,-4.2885,-4.2846,-4.2921,-4.2921,-4.2874,-4.2887,-4.2847,-4.2841,-4.2839,-4.2816,-4.2813,-4.2837,-4.2854,-4.2874,-4.2968,-4.2962,-4.3016,-4.3036,-4.3052,-4.3064,-4.3115,-4.3139,-4.2882,-4.2882,-4.2882,0,0,-4.2929,-4.291,-4.2934,-4.2946,-4.2938,-4.2973,-4.2873,-4.2914,-4.294,-4.2845,-4.2903,-4.2887,-4.2879,-4.2958,-4.2992,-4.295,-4.3134,-4.3066,-4.3079,-4.3082,-4.3128,-4.3153,-4.3174,-4.2889,-4.2888,-4.2887,0,0,-4.3086,-4.3075,-4.3136,-4.3131,-4.3121,-4.309,-4.3105,-4.308,-4.3066,-4.3123,-4.3053,-4.3083,-4.3126,-4.3124,-4.3128,-4.3288,-4.3233,-4.3296,-4.3399,-4.3449,-4.3469,-4.3487,-4.3546,-4.3567,-4.3308,-4.3308,-4.3308,0,-4.3182,-4.3232,-4.3175,-4.3221,-4.3229,-4.3145,-4.3208,-4.3206,-4.3203,-4.3211,-4.3164,-4.3217,-4.3206,-4.3284,-4.3324,-4.333,-4.3346,-4.3298,-4.3471,-4.3488,-4.3504,-4.3559,-4.3581,-4.3316,-4.3315,-4.3314,-4.3314,0,-4.3352,-4.3388,-4.3439,-4.3439,-4.3453,-4.3508,-4.346,-4.3481,-4.344,-4.3414,-4.3475,-4.3459,-4.3475,-4.349,-4.3451,-4.3565,-4.3539,-4.3483,-4.3398,-4.3537,-4.3588,-4.3608,-4.3327,-4.3324,-4.3322,-4.332,0,0,-4.3585,-4.3555,-4.3575,-4.3575,-4.3559,-4.3586,-4.3638,-4.3653,-4.3674,-4.3675,-4.3718,-4.3757,-4.3706,-4.3711,-4.3671,-4.3715,-4.3845,-4.3653,-4.3652,-4.3691,-4.3971,-4.4015,-4.404,-4.3809,-4.3813,-4.3815,-4.3973,0,-4.3737,-4.3823,-4.3774,-4.3868,-4.3901,-4.3823,-4.3869,-4.3865,-4.3842,-4.3868,-4.3843,-4.3873,-4.3802,-4.3805,-4.3845,-4.3821,-4.3901,-4.3809,-4.3849,-4.3851,-4.3854,-4.4066,-4.4111,-4.426,-4.3992,-4.3995,-4.3997,0,-4.3925,-4.3936,-4.4033,-4.4013,-4.4025,-4.4067,-4.4079,-4.4104,-4.4099,-4.4079,-4.4087,-4.4037,-4.4088,-4.4005,-4.4075,-4.4013,-4.4027,-4.4018,-4.4023,-4.4025,-4.3933,-4.4075,-4.4306,-4.4329,-4.4028,-4.4025,-4.4023,0,-4.4087,-4.4126,-4.419,-4.4192,-4.417,-4.4201,-4.4194,-4.4184,-4.4197,-4.4208,-4.4217,-4.4233,-4.4243,-4.4257,-4.4214,-4.4157,-4.4291,-4.4203,-4.4277,-4.4279,-4.4309,-4.4308,-4.4547,-4.4317,-4.4317,-4.4316,-4.4316,0,-4.4262,-4.4325,-4.4263,-4.4302,-4.4371,-4.4315,-4.4385,-4.4369,-4.4362,-4.4397,-4.4331,-4.4366,-4.4306,-4.4336,-4.4302,-4.4366,-4.437,-4.4357,-4.4348,-4.4364,-4.4366,-4.4372,-4.4361,-4.4322,-4.4321,-4.432,-4.4318,0,-4.4455,-4.4416,-4.448,-4.4455,-4.445,-4.4502,-4.448,-4.4517,-4.449,-4.4537,-4.4544,-4.4504,-4.4535,-4.4494,-4.4521,-4.4498,-4.4587,-4.4561,-4.4589,-4.4582,-4.4658,-4.4653,-4.4911,-4.4942,-4.4692,-4.4694,-4.4696,0,-4.457,-4.4616,-4.4597,-4.4616,-4.4612,-4.4644,-4.4658,-4.4605,-4.4623,-4.4622,-4.4659,-4.4685,-4.4703,-4.4758,-4.4731,-4.4752,-4.4727,-4.4816,-4.473,-4.4745,-4.473,-4.4729,-4.4734,-4.4834,-4.4837,-4.484,-4.4842,0,-4.4778,-4.4757,-4.4779,-4.4796,-4.4815,-4.4826,-4.4831,-4.4851,-4.4796,-4.482,-4.4851,-4.4866,-4.4895,-4.4922,-4.4937,-4.4929,-4.4878,-4.4869,-4.4888,-4.4905,-4.492,-4.4914,-4.4638,-4.4863,-4.4861,-4.486,-4.4858,-4.4858,-4.4935,-4.4974,-4.4967,-4.4995,-4.4995,-4.5002,-4.5036,-4.5014,-4.504,-4.5059,-4.5027,-4.5068,-4.5063,-4.5078,-4.5077,-4.5109,-4.507,-4.5096,-4.5103,-4.5111,-4.5124,-4.4914,-4.5111,-4.511,-4.511,-4.5109,-4.5109,0,-4.5141,-4.5133,-4.516,-4.5171,-4.5194,-4.5143,-4.5147,-4.517,-4.5207,-4.5207,-4.5227,-4.5265,-4.5292,-4.5269,-4.5291,-4.5322,-4.5299,-4.5329,-4.5327,-4.5327,-4.5156,-4.5138,-4.5348,-4.5348,-4.5348,-4.5348,-4.5348,-4.5348,-4.5251,-4.5315,-4.5294,-4.5357,-4.5349,-4.5389,-4.5396,-4.5403,-4.5403,-4.5449,-4.5471,-4.5456,-4.5447,-4.5469,-4.5492,-4.5485,-4.5497,-4.5537,-4.5521,-4.5362,-4.5338,-4.5316,-4.5299,-4.5539,-4.554,-4.5689,-4.5691,-4.5692]},{"header":{"parameterUnit":"m.s-1","parameterCategory":1,"la1":30.2991,"la2":30.254,"lo1":-89.0895,"lo2":-89.0444,"dy":0.0017,"dx":0.0017,"nx":28,"ny":28,"refTime":"2024-10-02T21:00:00:Z","depth":0,"parameterNumber":3,"parameterNumberName":"V-component_of_WINDS"},"data":[0,0,0,0,0,0,0,0,0,0,0,0,0,0,0,0,0,0,0,0,0,0,0,0,0,0,0,0,0,0,0,0,0,0,0,0,0,0,0,0,0,0,0,0,0,0,0,0,0,0,0,0,0,0,0,0,0,0,-2.2099,-2.21,0,-2.213,-2.213,-2.2131,-2.2123,-2.2122,-2.2122,-2.2121,-2.2151,-2.2152,-2.2154,0,0,0,0,0,0,0,0,0,0,0,0,0,-2.2032,-2.2033,-2.2099,-2.21,-2.21,-2.213,-2.213,-2.2131,-2.2123,-2.2122,-2.2121,-2.2121,-2.215,-2.2152,-2.2154,0,0,0,0,0,0,0,0,0,0,0,0,0,-2.2062,-2.2033,-2.2099,-2.21,-2.21,-2.213,-2.213,-2.2131,-2.2123,-2.2122,-2.2121,-2.212,-2.215,-2.2152,-2.2154,-2.2184,0,0,-2.216,-2.2161,0,0,0,0,0,0,0,0,-2.206,-2.2064,-2.2099,-2.21,-2.21,-2.2122,-2.2117,-2.2149,-2.2123,-2.2114,-2.2121,-2.212,-2.2142,-2.2144,-2.2152,-2.2186,-2.2187,-2.216,-2.2162,-2.2162,-2.2163,0,0,0,0,0,0,0,-2.2058,-2.2063,-2.2111,-2.21,-2.21,-2.2098,-2.2101,-2.2123,-2.2133,-2.2115,-2.2114,-2.2118,-2.2142,-2.215,-2.2153,-2.2188,-2.216,-2.2162,-2.2163,-2.2164,-2.2248,-2.2249,0,0,0,0,0,0,-2.2056,-2.2061,-2.211,-2.2112,-2.2077,-2.21,-2.2103,-2.2116,-2.2132,-2.2134,-2.2119,-2.2118,-2.2147,-2.215,-2.2154,-2.2191,-2.2162,-2.2164,-2.2165,-2.2247,-2.2248,-2.2249,0,0,0,0,0,0,-2.2054,-2.206,-2.2109,-2.2086,-2.2093,-2.2102,-2.2116,-2.2117,-2.2125,-2.2135,-2.2137,-2.2126,-2.2147,-2.2151,-2.2177,-2.2192,-2.2165,-2.2167,-2.2246,-2.2247,-2.2249,-2.2266,0,0,0,0,0,0,-2.2052,-2.206,-2.2072,-2.2087,-2.2094,-2.2132,-2.2117,-2.2118,-2.2129,-2.2127,-2.2142,-2.2144,-2.2146,-2.2174,-2.2179,-2.2194,-2.2169,-2.2245,-2.2247,-2.2248,-2.2264,-2.2268,-2.2271,0,0,0,0,0,-2.205,-2.2075,-2.2073,-2.2079,-2.2109,-2.2133,-2.2137,-2.214,-2.213,-2.2142,-2.2149,-2.2144,-2.2189,-2.2177,-2.2182,-2.2199,-2.2244,-2.2246,-2.2248,-2.2263,-2.2267,-2.2271,0,0,0,0,0,0,-2.2061,-2.2077,-2.2074,-2.2105,-2.2118,-2.2132,-2.2147,-2.2144,-2.216,-2.2158,-2.216,-2.2163,-2.219,-2.2197,-2.2182,-2.2229,-2.2215,-2.2218,-2.2224,-2.2228,-2.2232,-2.223,-2.217,0,0,0,0,0,-2.2067,-2.2086,-2.2099,-2.2125,-2.2131,-2.2138,-2.2149,-2.215,-2.2163,-2.2168,-2.2176,-2.2189,-2.2206,-2.2217,-2.2234,-2.2264,-2.2268,-2.2278,-2.2282,-2.2285,-2.2288,-2.2305,-2.231,-2.2257,-2.2257,-2.2257,0,0,-2.208,-2.2091,-2.2103,-2.2127,-2.2137,-2.2156,-2.2143,-2.2163,-2.2177,-2.2171,-2.2197,-2.2203,-2.2217,-2.2246,-2.2259,-2.2252,-2.2303,-2.2287,-2.229,-2.2291,-2.2308,-2.2313,-2.2317,-2.2258,-2.2258,-2.2258,0,0,-2.2113,-2.2123,-2.2146,-2.2157,-2.2172,-2.2177,-2.2182,-2.2196,-2.2201,-2.2226,-2.2222,-2.2238,-2.2268,-2.2278,-2.2287,-2.2324,-2.232,-2.2329,-2.2347,-2.2364,-2.2368,-2.2372,-2.2386,-2.239,-2.2332,-2.2332,-2.2332,0,-2.2127,-2.2156,-2.2158,-2.218,-2.2191,-2.2186,-2.2209,-2.2218,-2.2238,-2.2245,-2.2238,-2.2275,-2.2284,-2.2315,-2.2324,-2.2331,-2.2337,-2.2328,-2.2367,-2.2371,-2.2375,-2.2388,-2.2393,-2.2333,-2.2333,-2.2333,-2.2332,0,-2.2173,-2.2193,-2.2209,-2.223,-2.2242,-2.2264,-2.2269,-2.2281,-2.2281,-2.2286,-2.2312,-2.2322,-2.2341,-2.2348,-2.2347,-2.2379,-2.2374,-2.2367,-2.2353,-2.2381,-2.2393,-2.2398,-2.2334,-2.2334,-2.2334,-2.2333,0,0,-2.2215,-2.2236,-2.2242,-2.2251,-2.2268,-2.2283,-2.2304,-2.2323,-2.2334,-2.2347,-2.2365,-2.239,-2.2383,-2.2393,-2.2394,-2.2408,-2.2437,-2.2399,-2.2399,-2.2406,-2.2473,-2.2479,-2.2485,-2.2434,-2.2435,-2.2435,-2.2472,0,-2.2251,-2.229,-2.2292,-2.2327,-2.2345,-2.234,-2.2359,-2.2371,-2.2376,-2.2392,-2.2397,-2.2415,-2.2404,-2.241,-2.2424,-2.2431,-2.2451,-2.2428,-2.2451,-2.2452,-2.2449,-2.2492,-2.2498,-2.2533,-2.2477,-2.2478,-2.2478,0,-2.2298,-2.2313,-2.235,-2.2364,-2.2372,-2.2389,-2.2406,-2.2422,-2.2434,-2.2437,-2.2448,-2.2446,-2.2468,-2.2452,-2.2482,-2.2466,-2.2476,-2.248,-2.2481,-2.2484,-2.2467,-2.2497,-2.2543,-2.2549,-2.2486,-2.2485,-2.2485,0,-2.2326,-2.2356,-2.2382,-2.239,-2.2407,-2.2419,-2.2426,-2.2438,-2.2449,-2.2463,-2.2471,-2.2487,-2.2497,-2.2509,-2.2512,-2.25,-2.2541,-2.2526,-2.2544,-2.2544,-2.2554,-2.2554,-2.2604,-2.2558,-2.2558,-2.2558,-2.2558,0,-2.2366,-2.2389,-2.2395,-2.2412,-2.2437,-2.2439,-2.2464,-2.247,-2.2481,-2.2498,-2.2493,-2.2509,-2.2511,-2.2527,-2.2529,-2.2554,-2.2557,-2.256,-2.2561,-2.2561,-2.2561,-2.2568,-2.2566,-2.256,-2.2559,-2.2559,-2.2559,0,-2.2403,-2.2408,-2.2436,-2.2449,-2.2453,-2.2471,-2.2482,-2.2498,-2.2502,-2.2523,-2.2528,-2.2535,-2.2554,-2.2557,-2.2579,-2.258,-2.261,-2.2607,-2.2606,-2.2606,-2.2624,-2.2623,-2.2682,-2.269,-2.2638,-2.2638,-2.2639,0,-2.2429,-2.2446,-2.2462,-2.2473,-2.2481,-2.2499,-2.2511,-2.2512,-2.2524,-2.254,-2.2553,-2.2572,-2.2587,-2.2617,-2.2623,-2.264,-2.2638,-2.2658,-2.2641,-2.2641,-2.264,-2.2639,-2.2641,-2.2662,-2.2662,-2.2663,-2.2663,0,-2.2474,-2.2476,-2.2493,-2.2511,-2.2524,-2.2538,-2.2551,-2.2561,-2.2564,-2.2577,-2.2597,-2.2608,-2.2631,-2.2649,-2.2666,-2.2673,-2.2669,-2.2668,-2.2673,-2.2675,-2.2674,-2.2675,-2.2616,-2.2667,-2.2667,-2.2666,-2.2666,-2.2666,-2.2507,-2.2523,-2.2536,-2.2555,-2.2565,-2.2577,-2.2592,-2.2598,-2.2615,-2.2634,-2.2633,-2.2655,-2.2667,-2.2689,-2.2696,-2.2713,-2.2706,-2.2714,-2.2716,-2.2718,-2.272,-2.267,-2.2716,-2.2715,-2.2715,-2.2715,-2.2715,0,-2.2554,-2.2562,-2.2579,-2.2598,-2.2612,-2.2607,-2.2621,-2.2634,-2.2653,-2.2664,-2.2679,-2.2701,-2.2719,-2.2727,-2.2744,-2.2755,-2.2754,-2.276,-2.276,-2.2761,-2.2724,-2.2719,-2.2761,-2.2761,-2.2761,-2.2761,-2.2761,-2.2761,-2.258,-2.2606,-2.2609,-2.264,-2.2648,-2.2669,-2.2678,-2.2689,-2.2698,-2.2723,-2.2738,-2.2743,-2.2753,-2.2771,-2.2786,-2.2788,-2.2795,-2.2802,-2.2803,-2.2768,-2.2764,-2.276,-2.2754,-2.2803,-2.2803,-2.2838,-2.2839,-2.2839]}]]